Regional Weather Roundup
Issued by NWS

Home | Current Version | Previous Version | Graphics & Text | Print | Product List | Glossary On
Versions: 1 2 3 4 5 6 7 8 9 10 11 12 13 14 15 16 17 18 19 20 21 22 23 24 25 26 27 28 29 30 31 32 33 34 35 36 37 38 39 40 41 42 43 44 45 46 47 48 49 50
000
ASUS43 KOAX 311010
RWRNE

WEATHER ROUNDUP FOR NEBRASKA
NATIONAL WEATHER SERVICE OMAHA NE
500 AM CDT THU JUL 31 2014

NOTES: SATELLITE DATA IS BEING USED TO AUGMENT CLOUD COVER ABOVE
       12000 FEET.
       "FAIR" INDICATES FEW OR NO CLOUDS BELOW 12,000 FEET WITH NO
       SIGNIFICANT WEATHER AND/OR OBSTRUCTIONS TO VISIBILITY.

  * THESE STATIONS DO NOT REPORT WEATHER SUCH AS RAIN...SNOW OR FOG.

NEZ001>004-019>022-054>056-311100-
NEBRASKA PANHANDLE

CITY           SKY/WX    TMP DP  RH WIND       PRES   REMARKS
SCOTTSBLUFF    PTCLDY    59  57  93 CALM      30.21S
ALLIANCE       PTCLDY    52  50  93 SW7       30.19F
CHADRON        CLEAR     54  48  80 CALM      30.18R
KIMBALL        MOCLDY    56  55  95 W6        30.24S
SIDNEY         MOCLDY    54  52  93 W7        30.24R
$$

NEZ057>060-069>072-079>082-311100-
SOUTHWEST NEBRASKA

CITY           SKY/WX    TMP DP  RH WIND       PRES   REMARKS
NORTH PLATTE   MOCLDY    55  54  96 NW5       30.15F FOG
IMPERIAL       CLOUDY    59  57  93 W7        30.19F
LEXINGTON      MOCLDY    59  56  89 CALM      30.14F
MCCOOK         PTCLDY    60  58  92 W7        30.17S
OGALLALA       MOCLDY    55  54  97 W6        30.18S
$$

NEZ005>010-023>029-035>040-094-311100-
NORTH CENTRAL NEBRASKA

CITY           SKY/WX    TMP DP  RH WIND       PRES   REMARKS
VALENTINE      CLEAR     57  49  74 W8        30.08S
AINSWORTH      CLEAR     60  56  86 SW6       30.08S
BROKEN BOW     MOCLDY    55  54  96 CALM      30.12F
O`NEILL        CLOUDY    63  59  87 SE9       30.08F
ORD            PTCLDY    60  55  83 S6        30.10F
THEDFORD       MOCLDY    64  59  83 SW8       30.13S
$$

NEZ041-046>049-061>064-073>077-083>087-311100-
SOUTH CENTRAL NEBRASKA

CITY           SKY/WX    TMP DP  RH WIND       PRES   REMARKS
GRAND ISLAND   PTCLDY    60  54  80 W6        30.14S
AURORA         PTCLDY    58  56  94 SW5       30.13S
HASTINGS       PTCLDY    61  52  72 W6        30.14S
HEBRON         CLEAR     53  49  89 CALM      30.13S
HOLDREGE       PTCLDY    62  53  73 S7        30.14F
KEARNEY *      MOCLDY    61  54  77 S7        30.14F
YORK           PTCLDY    57  55  94 MISG      30.13S
$$

NEZ011>018-030>034-042>045-311100-
NORTHEAST NEBRASKA

CITY           SKY/WX    TMP DP  RH WIND       PRES   REMARKS
NORFOLK        MOCLDY    58  55  90 CALM      30.10S
ALBION         PTCLDY    61  54  77 CALM      30.11F
BLAIR          MOCLDY    61  53  75 CALM      30.10S
COLUMBUS *     MOCLDY    54  50  87 CALM      30.12S VSB 1/2
FREMONT        CLEAR     60  57  91 CALM      30.11S
TEKAMAH        CLEAR     54  50  86 CALM      30.11R
WAYNE          PTCLDY    54  52  94 CALM      30.11S
$$

NEZ050>053-065>068-078-088>093-311100-
SOUTHEAST NEBRASKA

CITY           SKY/WX    TMP DP  RH WIND       PRES   REMARKS
LINCOLN        PTCLDY    55  53  93 CALM      30.12S
OMAHA EPPLEY   PTCLDY    62  56  80 SE3       30.11S
BEATRICE       CLEAR     54  53  96 CALM      30.12S
FALLS CITY     CLEAR     57  54  89 W5        30.11S
NEBRASKA CITY  PTCLDY    60  55  84 W6        30.11S
PLATTSMOUTH    CLEAR     61  53  75 CALM      30.11S
$$

NEZ044-045-051>053-067-311100-
OMAHA AREA

CITY           SKY/WX    TMP DP  RH WIND       PRES   REMARKS
OMAHA EPPLEY   PTCLDY    62  56  80 SE3       30.11S
BLAIR          MOCLDY    61  53  75 CALM      30.10S
FREMONT        CLEAR     60  57  91 CALM      30.11S
MILLARD        CLEAR     59  57  94 CALM      30.10S
OFFUTT AFB     CLEAR     54  54 100 CALM      30.10S
PLATTSMOUTH    CLEAR     61  53  75 CALM      30.11S
WAHOO          FAIR      56  53  90 CALM      30.11S
$$



USA.gov is the U.S. government's official web portal to all federal, state and local government web resources and services.